Погода в Сан-Хосе-де-Окоа

Доминиканская Республика     18°32′44″N   70°30′03″W
темп.,
°C
ветер,
м/с
пор.,
м/с
влажн.,
%
обл.,
%
осадки,
мм/ч
давл.,
гПа
погр.,
м
27 сентября, пн
пн2723:00+22ссв229152 0.4 101756
02:00+21ссв229129 0.6 101640
05:00+20ссв22905 0.0 101533
08:00+23св11825 0.0 1017138
11:00+27ю226271 0.0 10161252
14:00+28ю336479 0.5 10131263
17:00+25ю2278100 1.8 1013338
20:00+22ссв0189100 2.9 101523
28 сентября, вт
вт2823:00+21св1291100 0.6 101649
02:00+21ссв219358 0.6 101440
05:00+20ссв21926 0.0 101433
08:00+22св118415 0.0 1015168
11:00+27ю226235 0.0 10151208
14:00+27ююз326753 1.1 10131001
17:00+25ю227971 4.9 1012364
20:00+21св1189100 7.0 101454
29 сентября, ср
ср2923:00+21с2188100 0.4 101527
02:00+20ссв228883 0.4 101336
05:00+20ссв22892 0.0 101333
08:00+22ссв11820 0.0 1014151
11:00+27ю226445 0.1 10141224
14:00+26ююз227466 3.1 1013658
17:00+24ю128386 4.8 1012316
20:00+22св1189100 7.8 101319
30 сентября, чт
чт3023:00+21ссв219160 0.5 101420
02:00+20ссв229124 0.6 101330
05:00+20ссв22915 0.0 101331
08:00+22св11835 0.0 1014127
11:00+27ю226220 0.0 10141239
14:00+26ююз326933 0.9 1012921
17:00+24ю128038 4.3 1012268
20:00+21св229159 8.0 101428
1 октября, пт
пт123:00+20с229277 2.1 101655
02:00+20св229053 2.2 101442
05:00+19с21917 0.0 101435
08:00+22св128468 0.0 1015146
11:00+26ю12627 0.0 10151170
14:00+27ююз236027 0.5 10141365
17:00+24ю22788 2.5 1013377
20:00+21св229043 3.3 101548